Location: Newark
(13.6797°N, 8.5297°E)
Time: 13:09:14
(UTC+00:00)

SR - Visible Passes

Search period start: 28 January 2020 00:00
Search period end: 07 February 2020 00:00
Orbit: 574 x 882 km, 66.7° (Epoch: 27 January)

Date Brightness Start Highest point End Pass type
(mag) Time Alt. Az. Time Alt. Az. Time Alt. Az.
28 Jan ? 19:43:22 10° SSW 19:45:58 30° SSW 19:45:58 30° SSW visible
29 Jan ? 18:54:13 10° S 18:58:48 40° ESE 18:58:48 40° ESE visible
29 Jan ? 20:37:52 10° WSW 20:38:17 11° W 20:38:17 11° W visible
30 Jan ? 18:06:24 10° SE 18:09:55 17° ESE 18:11:43 15° E visible
30 Jan ? 19:46:26 10° SW 19:51:13 38° WNW 19:51:13 38° WNW visible
31 Jan ? 18:56:22 10° SSW 19:01:55 90° WNW 19:04:14 38° NNE visible
01 Feb ? 18:07:18 10° S 18:12:23 38° ESE 18:17:19 12° NE visible
01 Feb ? 19:50:37 10° WSW 19:54:27 19° WNW 19:56:49 15° NW visible
02 Feb ? 04:47:06 10° NNE 04:50:09 16° ENE 04:53:03 10° ESE visible
02 Feb ? 18:59:22 10° SW 19:04:38 42° WNW 19:09:54 11° N visible
03 Feb ? 18:09:24 10° SSW 18:14:57 84° ESE 18:20:51 10° NNE visible
04 Feb ? 04:48:24 10° N 04:53:00 37° ENE 04:57:12 10° SE visible
04 Feb ? 19:03:25 10° WSW 19:07:28 20° WNW 19:11:40 10° NNW visible
05 Feb ? 04:00:26 10° NNE 04:03:08 15° ENE 04:05:44 10° E visible
05 Feb ? 18:12:19 10° SW 18:17:40 45° WNW 18:23:16 10° N visible
06 Feb ? 04:50:44 10° NNW 04:55:40 86° WSW 05:00:08 10° SSE visible
